Regional Weather Roundup
Issued by NWS Cleveland, OH

Home | Current Version | Previous Version | Text Only | Print | Product List | Glossary On
Versions: 1 2 3 4 5 6 7 8 9 10 11 12 13 14 15 16 17 18 19 20 21 22 23 24 25 26 27 28 29 30 31 32 33 34 35 36 37 38 39 40 41 42 43 44 45 46 47 48 49 50
000
ASUS41 KCLE 261012
RWRCLE
OHIO REGIONAL WEATHER ROUNDUP
NATIONAL WEATHER SERVICE WILMINGTON, OH
600 AM EDT MON SEP 26 2016

NOTE: "FAIR" INDICATES FEW OR NO CLOUDS BELOW 12,000 FEET WITH NO
SIGNIFICANT WEATHER AND/OR OBSTRUCTIONS TO VISIBILITY.

OHZ001>008-015>018-024>027-034-035-043-044-261100-
   NORTHWEST OHIO

CITY           SKY/WX    TMP DP  RH WIND       PRES   REMARKS
DEFIANCE       CLOUDY    69  65  86 SW5       29.88S
FINDLAY        CLOUDY    67  62  84 S7        29.89F
TOLEDO EXPRESS MOCLDY    63  61  93 S5        29.87F
TOLEDO EXEC    MOCLDY    66  61  84 S8        29.88F
LIMA           CLOUDY    71  64  78 SW12      29.92F
$$

OHZ009>014-019>023-028>033-038-089-261100-
   NORTHEAST OHIO

CITY           SKY/WX    TMP DP  RH WIND       PRES   REMARKS
CLE-HOPKINS    MOCLDY    64  47  53 S10       29.94F
CLE-LAKEFRONT  FAIR      64  46  52 SE15G23   29.90F
CUY CO. ARPT   NOT AVBL
LORAIN-ELYRIA  FAIR      61  47  59 S13       29.92F
ASHTABULA      FAIR      56  49  77 S9        29.98F
AKRON-CANTON   FAIR      59  47  64 S8        29.97F
WOOSTER        FAIR      53  49  86 SE5       29.96F
MANSFIELD      MOCLDY    65  48  54 S13       29.94F
YOUNGSTOWN     MOCLDY    56  47  71 SE9       29.98F
$$

OHZ042-051>053-060>062-070>072-077>081-261100-
  SOUTHWEST OHIO

CITY           SKY/WX    TMP DP  RH WIND       PRES   REMARKS
CINC-COVINGTON FAIR      69  66  90 S8        29.94S
CINC-LUNKEN    FOG       65  65 100 CALM      29.94S VSB 1
HAMILTON       FAIR      64  62  93 CALM      29.94F FOG
DAYTON         FAIR      70  63  78 SW9       29.94S
WRIGHT-PAT AFB CLEAR     68  64  89 S6        29.93S
DAYTON GENERAL FAIR      67  62  84 S8        29.93F
WILMINGTON     FAIR      67  63  87 S7        29.94F
$$

OHZ036-037-039>041-045>050-054>059-063>069-073>076-082>088-261100-
  CENTRAL AND SOUTHEAST OHIO

CITY           SKY/WX    TMP DP  RH WIND       PRES   REMARKS
COLUMBUS       FAIR      64  51  62 SE5       29.94F
OSU AIRPORT    FAIR      64  51  62 SE6       29.94F
BOLTON FIELD   FAIR      60  53  79 S3        29.95F
RICKENBACK AFB FAIR      59  53  81 CALM      29.94F
NEWARK         FAIR      55  53  93 CALM      29.96F
MARION         FAIR      63  48  58 S9        29.93F
LANCASTER      FAIR      62  52  69 SE6       29.96S
ZANESVILLE     FAIR      54  51  90 CALM      29.98S
NEW PHILLY     FAIR      56  53  90 SE5       29.98F
$$



USA.gov is the U.S. government's official web portal to all federal, state and local government web resources and services.